Location: New Canada
(47.1017°N, 68.5042°W)
Time: 16:57:03
(UTC+00:00)

KKS-1 - Pass Details

Date: 03 May 2024
Orbit: 628 x 639 km, 98.1° (Epoch: 21 May)

Event Time Altitude Azimuth Distance (km) Brightness Sun altitude
Rises 04:04:38 0° 12° (NNE) 2,956 ? -26.8°
Reaches altitude 10° 04:06:51 10° 11° (N) 2,041 ? -26.9°
Enters shadow 04:10:41 64° 348° (NNW) 712 ? -26.9°
